This is the latest recevied weather packets stored in our database for station/object N1MCJ. If no packets are shown the sender has not sent any weather packets the latest 10 day(s).
| Time | Temp. | Humidity | Pressure | Rain* | Wind** | Luminosity | Snow |
|---|---|---|---|---|---|---|---|
| 1778068056 | 15° C | 89% | 1001.7 hPa | 0 mm | - | 28 W/m² | - |
| 1778067154 | 14.44° C | 91% | 1001.6 hPa | 0 mm | - | 28 W/m² | - |
| 1778066251 | 13.89° C | 93% | 1001.7 hPa | 0 mm | - | 37 W/m² | - |
| 1778065350 | 13.33° C | 94% | 1001.5 hPa | 0 mm | - | 26 W/m² | - |
| 1778064447 | 13.33° C | 95% | 1001.6 hPa | 0 mm | - | 24 W/m² | - |
| 1778063543 | 12.78° C | 96% | 1001.4 hPa | 0 mm | - | 16 W/m² | - |
| 1778062642 | 12.78° C | 96% | 1001.7 hPa | 0 mm | - | 7 W/m² | - |
| 1778061740 | 12.78° C | 96% | 1001.7 hPa | 0 mm | - | 2 W/m² | - |
| 1778060837 | 12.78° C | 96% | 1001.5 hPa | 0 mm | - | 0 W/m² | - |
| 1778059936 | 12.78° C | 95% | 1001.5 hPa | 0 mm | - | 0 W/m² | - |
| 1778059035 | 12.78° C | 95% | 1001.5 hPa | 0 mm | - | 0 W/m² | - |
| 1778058132 | 12.78° C | 94% | 1001.6 hPa | 0 mm | - | 0 W/m² | - |
| 1778057228 | 12.78° C | 94% | 1001.7 hPa | 0 mm | - | 0 W/m² | - |
| 1778056325 | 13.33° C | 93% | 1001.7 hPa | 0 mm | - | 0 W/m² | - |
| 1778055420 | 13.33° C | 93% | 1001.7 hPa | 0 mm | - | 0 W/m² | - |
| 1778054518 | 13.33° C | 92% | 1001.8 hPa | 0 mm | - | 0 W/m² | - |
| 1778053616 | 13.33° C | 92% | 1001.9 hPa | 0 mm | - | 0 W/m² | - |
| 1778052714 | 13.33° C | 91% | 1001.9 hPa | 0 mm | - | 0 W/m² | - |
| 1778051811 | 13.89° C | 90% | 1002 hPa | 0 mm | - | 0 W/m² | - |
| 1778050908 | 13.89° C | 90% | 1001.8 hPa | 0 mm | - | 0 W/m² | - |
| 1778050006 | 13.89° C | 89% | 1001.9 hPa | 0 mm | - | 0 W/m² | - |
| 1778049102 | 13.89° C | 88% | 1001.7 hPa | 0 mm | - | 0 W/m² | - |
| 1778048199 | 13.89° C | 88% | 1001.7 hPa | 0 mm | - | 0 W/m² | - |
| 1778047297 | 14.44° C | 87% | 1002 hPa | 0 mm | - | 0 W/m² | - |
| 1778046394 | 15° C | 85% | 1002.1 hPa | 0 mm | - | 0 W/m² | - |
* Rain latest hour (hover to see other rain measurements)
** Current wind speed in m/s (hover to see current wind gust speed)